User: anonymous   Login
Location: Bakov nad Jizerou
(50.4784°N, 14.9394°E)
Time: 00:13:51
(UTC+00:00)
Language:

Cosmos 2360 Rocket - Orbit

View from above orbital plane
View from above orbital plane
View from above satellite
View from above satellite

Ground track
Ground track

The orbit data is extracted from the following two-line orbital elements,

1 25407U 98045B   21263.34832679  .00000117  00000-0  83927-4 0  9992
2 25407  71.0137  11.0521 0008110 336.7550  23.3205 14.15840109196170
Epoch (UTC): 20 September 2021 08:21:35
Eccentricity: 0.0008110
inclination: 71.0137°
perigee height: 833 km
apogee height: 845 km
right ascension of ascending node: 11.0521°
argument of perigee: 336.7550°
revolutions per day: 14.15840109
mean anomaly at epoch: 23.3205°
orbit number at epoch: 19617

The dashed part of the orbit path shows where the satellite is in the earth's shadow,  

DLR